珠海一号 OHS-02B星 (ZHUHAI-1 OHS-02)

导读 | 豆包AI

ZHUHAI-1 OHS-02(珠海一号OHS-02B星),是中国于2018年4月26日由长征十一号运载火箭,以“一箭五星”方式在酒泉卫星发射中心送入太空的高光谱遥感卫星,隶属于珠海欧比特宇航科技股份有限公司运营的珠海一号商业微纳卫星星座。卫星目前仍在轨运行,主要服务于国土资源监测、环境保护、生态评估等遥感应用。

Basic Information
目录编号:
43441
目录名称:
ZHUHAI-1 OHS-02
国际标识:
2018-040C
轨道中心:
EARTH
卫星名称:
珠海一号 OHS-02B星
卫星全名:
珠海一号 OHS-02B星 (ZHUHAI-1 OHS-02)
卫星状态:
在轨 (已飞行2879 天)
发射日期:
2018-04-26 UTC
国别 :
中国 (CN)
星等 :
--
Orbit Information
数据来源 国际轨道数据 AOE轨道数据
星历时间 2026-03-13T22:59:58+0800
12小时前
查看轨道信息
2026-03-11T03:00:00+0800
3天前
查看轨道信息
半长轴 6870.481km 6870.556km
偏心率 0.0009023 0.0008659
轨道倾角 97.050° 97.052°
近地点辐角 199.097° 210.225°
升交点赤经 102.408° 99.742°
平近点角 160.993° 90.575°
近地点 486.144km 486.469km
远地点 498.544km 498.369km
周期 94.458分钟 94.460分钟
每日圈数 15.244812 15.244563
Detailed Information
平衡模式:
三轴稳定
覆盖范围:
全球
运营商:
珠海欧比特宇航科技股份有限公司
运营商所在国:
中国
制造商(研发单位):
珠海欧比特宇航科技股份有限公司
制造商所在国:
中国
使用方式:
暂无
Satellite Introduction
珠海一号(Zhuhai-1)卫星星座是由珠海欧比特宇航科技股份有限公司发射并运营的商业遥感微纳卫星星座,整个星座由34颗遥感卫星组成,分别是2颗视频试验卫星、10颗视频卫星、10颗高光谱卫星、2颗高分光学卫星、2颗SAR卫星和8颗红外卫星。该卫星仍在工作。
2D Orbit Map
3D Orbit Map
Orbit Altitude Analysis Chart
Orbit Inclination Analysis Chart
Orbit Comprehensive Analysis Chart
View Comprehensive Chart